Location: Newark
(45.8378°N, 5.5389°E)
Time: 10:16:30
(UTC+00:00)

OTV 5 (USA 277) - Visible Passes

Search period start: 14 October 2019 00:00
Search period end: 24 October 2019 00:00
Orbit: 310 x 324 km, 54.5° (Epoch: 08 October)

Date Brightness Start Highest point End Pass type
(mag) Time Alt. Az. Time Alt. Az. Time Alt. Az.
14 Oct ? 03:38:55 12° NNE 03:38:55 12° NNE 03:39:26 10° NE visible
14 Oct ? 05:10:32 10° NW 05:12:55 25° NNE 05:15:17 10° E visible
15 Oct ? 03:53:05 15° NNE 03:53:05 15° NNE 03:54:34 10° NE visible
16 Oct ? 04:07:19 20° N 04:07:38 20° NNE 04:09:48 10° ENE visible
17 Oct ? 04:21:38 27° N 04:22:24 33° NNE 04:24:56 10° E visible
18 Oct ? 04:36:01 33° NW 04:37:03 72° NNE 04:39:46 10° ESE visible
19 Oct ? 04:50:31 27° W 04:51:34 43° SW 04:54:11 10° SSE visible
20 Oct ? 03:34:13 12° ESE 03:34:13 12° ESE 03:34:31 10° ESE visible
20 Oct ? 05:05:08 16° WSW 05:05:57 17° SW 05:07:52 10° S visible
21 Oct ? 03:48:58 11° SE 03:48:58 11° SE 03:49:09 10° SE visible
